Location: Gdansk
(54.3667°N, 18.6333°E)
Time: 10:32:51
(UTC+02:00)

ISS - Visible Passes

Search period start: 26 September 2018 00:00
Search period end: 06 October 2018 00:00
Orbit: 403 x 408 km, 51.6° (Epoch: 26 September)

Date Brightness Start Highest point End Pass type
(mag) Time Alt. Az. Time Alt. Az. Time Alt. Az.
26 Sep -3.0 20:12:56 10° SW 20:15:58 34° SSE 20:16:23 32° SE visible
26 Sep -0.7 21:48:57 10° WSW 21:49:04 11° WSW 21:49:04 11° WSW visible
27 Sep -2.5 19:21:24 10° SSW 19:24:12 26° SSE 19:26:35 13° E visible
27 Sep -2.5 20:57:07 10° WSW 20:59:16 34° SW 20:59:16 34° SW visible
28 Sep -3.4 20:05:19 10° WSW 20:08:30 45° SSE 20:09:23 35° SE visible
28 Sep -0.9 21:41:32 10° W 21:42:03 14° W 21:42:03 14° W visible
29 Sep -3.0 19:13:34 10° SW 19:16:40 37° SSE 19:19:26 12° E visible
29 Sep -2.8 20:49:39 10° W 20:52:07 41° SW 20:52:07 41° SW visible
30 Sep -3.5 19:57:47 10° WSW 20:01:01 52° S 20:02:08 34° ESE visible
30 Sep -0.9 21:34:09 10° W 21:34:48 15° W 21:34:48 15° W visible
01 Oct -3.3 19:05:55 10° WSW 19:09:07 48° S 19:12:07 11° E visible
01 Oct -2.9 20:42:12 10° W 20:44:47 40° SW 20:44:47 40° SW visible
02 Oct -3.4 19:50:16 10° W 19:53:30 52° S 19:54:46 31° SE visible
02 Oct -0.9 21:26:47 10° W 21:27:26 14° WSW 21:27:26 14° WSW visible
03 Oct -3.4 18:58:20 10° WSW 19:01:35 53° S 19:04:44 10° ESE visible
03 Oct -2.6 20:34:44 10° W 20:37:24 34° SW 20:37:24 34° SW visible
04 Oct -3.1 19:42:44 10° W 19:45:54 44° SSW 19:47:23 25° SE visible
04 Oct -0.8 21:19:34 10° WSW 21:20:03 12° WSW 21:20:03 12° WSW visible
05 Oct -3.2 18:50:45 10° W 18:53:59 50° S 18:57:11 10° ESE visible
05 Oct -2.1 20:27:20 10° W 20:30:03 24° SSW 20:30:03 24° SSW visible
